Regional Weather Roundup
Issued by NWS

Home | Current Version | Previous Version | Text Only | Print | Product List | Glossary On
Versions: 1 2 3 4 5 6 7 8 9 10 11 12 13 14 15 16 17 18 19 20 21 22 23 24 25 26 27 28 29 30 31 32 33 34 35 36 37 38 39 40 41 42 43 44 45 46 47 48 49 50
000
ASUS44 KLIX 230812
RWRLA
LOUISIANA WEATHER ROUNDUP
NATIONAL WEATHER SERVICE NEW ORLEANS LA
300 AM CDT SAT MAY 23 2015

NOTE: "FAIR" INDICATES FEW OR NO CLOUDS BELOW 12,000 FEET WITH NO
      SIGNIFICANT WEATHER AND/OR OBSTRUCTIONS TO VISIBILITY.
      SKY/WX - SKY CONDITION AND SIGNIFICANT WEATHER.
      TMP - AIR TEMPERATURE.    DP   - DEWPOINT TEMPERATURE.
      RH  - RELATIVE HUMIDITY.  PRES - PRESSURE.
      HX  - HEAT INDEX.         WCI  - WIND CHILL INDEX.

*  THESE STATIONS ARE NOT NWS OR FAA STATIONS AND ARE NOT UNDER
   NWS QUALITY CONTROL.

LAZ040-048-061>063-065-066-069-230900-
SOUTHEAST LOUISIANA

CITY           SKY/WX    TMP DP  RH WIND       PRES   REMARKS
N.O. AUDUBON     N/A     76  70  83 MISG        N/A
N.O. INTL ARPT PTCLDY    74  67  78 VRB3      30.14F
N.O. LAKEFRONT CLEAR     77  69  76 E5        30.15S
SLIDELL        CLEAR     69  68  96 NE3       30.15S
BATON ROUGE    CLEAR     69  67  93 E3        30.15S
BOOTHVILLE     CLEAR     75  70  84 E3        30.15S
BELLE CHASSE   CLEAR     69  66  90 NE3       30.14S
BOGALUSA*        N/A     67  63  87 CALM      30.18S
GALLIANO*      SUNNY     75  71  86 CALM      30.14S
NEW ROADS*     FAIR      69  69  98 CALM      30.15S
GONZALES*      FAIR      71  71 100 CALM      30.13F
HAMMOND*       CLEAR     70  66  88 E3        30.17S
HOUMA*         PTCLDY    71  70  96 CALM      30.14R
PORT FOURCHON* PTSUNNY   77  72  83 E10       30.14S

$$

LAZ041-044-053-054-230900-
SOUTHWEST LOUISIANA

CITY           SKY/WX    TMP DP  RH WIND       PRES   REMARKS
LAKE CHARLES   CLEAR     70  67  90 E7        30.12S
LAFAYETTE      CLEAR     71  69  93 CALM      30.14S FOG
PATTERSON      NOT AVBL
SALT POINT       N/A     73  71  93 VRB3      30.12S
NEW IBERIA     CLEAR     73  71  93 NE5       30.14S
CHENAULT AIRPK CLEAR     69  67  94 E6        30.13S

$$

LAZ027-028-230900-
CENTRAL LOUISIANA

CITY           SKY/WX    TMP DP  RH WIND       PRES   REMARKS
FORT POLK      CLEAR     67  64  91 E6        30.13S
ALEXANDRIA INT CLEAR     66  63  90 CALM      30.13S
ALEXANDRIA     CLEAR     66  63  90 CALM      30.15S

$$

LAZ001-002-230900-
NORTHWEST LOUISIANA

CITY           SKY/WX    TMP DP  RH WIND       PRES   REMARKS
SHREVEPORT     CLEAR     66  60  81 SE5       30.14S
BARKSDALE AFB  CLEAR     63  60  89 CALM      30.14S
DTN SHREVEPORT CLEAR     63  59  87 E5        30.14F

$$

LAZ014-016-230900-
NORTHEAST LOUISIANA

CITY           SKY/WX    TMP DP  RH WIND       PRES   REMARKS
MONROE         MOCLDY    62  59  90 NE3       30.17F
TALLULAH       CLEAR     65  57  75 SE7       30.18S

$$



USA.gov is the U.S. government's official web portal to all federal, state and local government web resources and services.